Regional Weather Roundup
Issued by NWS

Home | Current Version | Previous Version | Text Only | Print | Product List | Glossary On
Versions: 1 2 3 4 5 6 7 8 9 10 11 12 13 14 15 16 17 18 19 20 21 22 23 24 25 26 27 28 29 30 31 32 33 34 35 36 37 38 39 40 41 42 43 44 45 46 47 48 49 50
000
ASUS43 KDTX 281910
RWRMI
MICHIGAN HOURLY REGIONAL WEATHER ROUNDUP
NATIONAL WEATHER SERVICE DETROIT/PONTIAC MI
300 PM EDT THU MAY 28 2015

NOTE: "FAIR" INDICATES FEW OR NO CLOUDS BELOW 12,000 FEET WITH NO
SIGNIFICANT WEATHER AND/OR OBSTRUCTION TO VISIBILITY.

MIZ047>049-052>055-059>063-066>070-074>076-081>083-282000-
SOUTHEAST LOWER MICHIGAN

CITY           SKY/WX    TMP DP  RH WIND       PRES   REMARKS
ADRIAN         SUNNY     78  58  49 SE8       30.24F
ALMA           MOSUNNY   78  59  51 S9        30.19F
ANN ARBOR      SUNNY     76  59  55 S10       30.24F
BAD AXE        MOSUNNY   80  53  39 CALM      30.21F
CARO           MOSUNNY   80  60  49 S3        30.20F
DETROIT CITY   SUNNY     75  60  59 SE10      30.25F
DETROIT        MOSUNNY   75  54  47 SE12      30.26F
FLINT          SUNNY     81  58  45 S8        30.22F
GROSSE ILE     SUNNY     68  61  77 SE6       30.26F
HILLSDALE      SUNNY     79  54  41 SE9G17    30.24F
HOWELL         MOSUNNY   78  54  42 S7        30.23F

CITY           SKY/WX    TMP DP  RH WIND       PRES   REMARKS
JACKSON        SUNNY     78  57  48 SE7G20    30.22F
LAMBERTVILLE   SUNNY     77  52  41 E6        30.25F
LANSING        MOSUNNY   78  58  49 S8        30.22F
LAPEER         FAIR      77  54  44 CALM      30.22F
MASON          SUNNY     76  58  54 SE5       30.22F
MONROE         SUNNY     72  54  53 E10       30.25F
MT. CLEMENS    MOSUNNY   75  58  56 SE13      30.23F
PONTIAC        MOSUNNY   79  57  46 SE8       30.22F
PORT HOPE        N/A     66  58  75 E15       30.21F
PORT HURON     SUNNY     75  59  57 S10       30.24F
TRI CITIES     MOSUNNY   81  59  47 SW7       30.19F
MIDLAND        FAIR      81  58  45 CALM      30.17F
TROY           MOSUNNY   79  57  46 S8        30.25F
SAGINAW HB     MOSUNNY   81  55  41 S7        30.19F
$$
MIZ043>046-050>051-056>058-064>065-071>073-077>080-282000-
SOUTHWEST LOWER MICHIGAN

CITY           SKY/WX    TMP DP  RH WIND       PRES   REMARKS
BATTLE CREEK   SUNNY     79  55  43 VRB3      30.22F
BENTON HARBOR  MOSUNNY   80  56  43 S10       30.18F
BIG RAPIDS     CLOUDY    76  57  51 SW8       30.18F
COLDWATER      SUNNY     77  55  46 SE10      30.21F
FREMONT        FAIR      77  54  45 S8        30.19F HAZE
HOLLAND        MOSUNNY   78  60  53 CALM      30.20F
GRAND RAPIDS   MOSUNNY   79  57  46 S6        30.19F
IONIA          FAIR      80  55  42 S12       30.19F
KALAMAZOO      SUNNY     79  58  48 S9        30.21F
LUDINGTON      SUNNY     76  60  56 SW13      30.18F
MARSHALL       SUNNY     79  54  41 SE7       30.22F
MOUNT PLEASANT MOSUNNY   81  55  41 S7        30.17F
MUSKEGON       MOSUNNY   76  55  48 SW9       30.20F
SOUTH HAVEN    MOSUNNY   79  56  45 SE12      30.19F
$$
MIZ016>042-282000-
NORTHERN LOWER MICHIGAN

CITY           SKY/WX    TMP DP  RH WIND       PRES   REMARKS
ALPENA         SUNNY     74  57  55 E8        30.20F
BEAVER ISLAND  SUNNY     67  54  61 W6        30.18F
BELLAIRE       SUNNY     80  51  36 CALM      30.15F
CADILLAC       SUNNY     81  55  40 S8        30.17F
CHARLEVOIX     SUNNY     64  55  73 N6        30.20
FRANKFORT      SUNNY     67  52  59 W6        30.18S
GAYLORD        SUNNY     78  50  37 S6        30.17F
GRAYLING       MOSUNNY   81  49  32 S3        30.17F
HARBOR SPRINGS SUNNY     64  54  70 SW6       30.17F
HOUGHTON LAKE  SUNNY     80  52  37 W7        30.18F
MANISTEE       SUNNY     79  57  47 SW8G16    30.17S
OSCODA         SUNNY     79  57  46 SE9       30.18F
PELLSTON       MOSUNNY   78  58  49 S6        30.17F
ROGERS CITY    SUNNY     62  56  79 NE12      30.21F
TRAVERSE CITY  MOSUNNY   72  56  57 NE6       30.14F
$$
MIZ007>008-015-282000-
EASTERN UPPER MICHIGAN

CITY           SKY/WX    TMP DP  RH WIND       PRES   REMARKS
KINROSS        PTSUNNY   72  59  64 SE7G16    30.18S
MACKINAC ISLAN SUNNY     65  55  70 E6        30.19F
NEWBERRY       SUNNY     72  59  63 SE9       30.16F
S. S. MARIE    SUNNY     71  56  58 VRB6      30.18F
MUNISING         N/A     50  44  80 N5        30.13F
$$
MIZ004>006-011>014-085-282000-
CENTRAL UPPER MICHIGAN

CITY           SKY/WX    TMP DP  RH WIND       PRES   REMARKS
MANISTIQUE     SUNNY     58  50  73 SE8       30.17F
ESCANABA       SUNNY     61  52  72 S10       30.14F
MENOMINEE      SUNNY     66  55  68 SE6       30.13F
SAWYER-GWINN   SUNNY     77  57  50 S12       30.12F
$$
MIZ001>003-009>011-084-282000-
WESTERN UPPER MICHIGAN

CITY           SKY/WX    TMP DP  RH WIND       PRES   REMARKS
IRON MOUNTAIN  SUNNY     79  61  53 SE12G20   30.09F
HOUGHTON       MOSUNNY   54  47  77 E14       30.10F
COPPER HARBOR    N/A     57  48  72 VRB7      30.10F
IRONWOOD       MOSUNNY   79  57  47 W9        30.00S
$$

ABBREVIATIONS USED IN REMARKS
   TC - TEMPERATURE IN CELSIUS
  WCI - WIND CHILL INDEX
   HX - HEAT INDEX
  VSB - VISIBILITY




USA.gov is the U.S. government's official web portal to all federal, state and local government web resources and services.